O3B FM8

Last updated on Sat Jul 18 2026 00:03:21 GMT+0000 (Coordinated Universal Time)

1 40082U 14038D 26198.51550323 -.00000025 00000+0 00000+0 0 9996 2 40082 0.0458 348.4737 0002752 128.7253 242.8250 5.00116091219461
UTC large
Height (km)
Speed (km/s)
/
Latitude / Longitude
Inclination (degrees)
Orbital Period (minutes)
Azimuth
Elevation
Range (km)
Doppler Factor

Next 0 passes for location: London (51.5072 / 0.1276)

No passes found over London.
O3B FM8